Simultaneous Nadir Overpasses (SNOs) Predictions

Prediction of SNOs between AQUA and METOP-A Satellite Orbit:

Table of predicted SNOs for the next 14.0 days since TLE Epoch: 3/23/2012
Index Date (AQUA) Time (AQUA) AQUA Lat,Lon Date (METOP-A) Time (METOP-A) METOP-A Lat,Lon Distance(km) Time Diff (sec)
1 03/26/2012 01:18:18 -73.79, -25.31 03/26/2012 01:17:32 -73.77, -25.29 2.19 46
2 03/26/2012 02:07:47 73.86, 142.17 03/26/2012 02:08:10 73.85, 142.26 2.78 23
3 03/28/2012 20:52:37 -73.79, 41.10 03/28/2012 20:51:52 -73.79, 41.18 2.49 45
4 03/28/2012 21:42:05 73.82,-151.32 03/28/2012 21:42:31 73.83,-151.39 2.59 26
5 03/31/2012 16:26:56 -73.77, 107.57 03/31/2012 16:26:14 -73.75, 107.51 2.93 42
6 03/31/2012 17:16:25 73.85, -84.97 03/31/2012 17:16:52 73.84, -84.95 1.64 27
7 04/03/2012 12:01:15 -73.78, 173.99 04/03/2012 12:00:35 -73.76, 173.93 2.95 40
8 04/03/2012 12:50:44 73.86, -18.56 04/03/2012 12:51:13 73.84, -18.52 2.37 29
9 04/06/2012 07:35:33 -73.81,-119.65 04/06/2012 07:34:54 -73.80,-119.55 3.18 39
10 04/06/2012 08:25:01 73.84, 47.91 04/06/2012 08:25:33 73.84, 47.88 1.25 32




NCC Satellite Simultaneous Nadir Overpasses (SNOs) Prediction Service
